Location: Unspecified
(0.0000°N, 0.0000°E)
Time: 02:17:44
(UTC+00:00)

Vanguard 3 - Pass Details

Date: 14 December 2017
Orbit: 508 x 3264 km, 33.4° (Epoch: 20 January)

Event Time Altitude Azimuth Distance (km) Brightness Sun altitude
Rises 01:54:42 0° 235° (SW) 6,739 11.7 -52.7°
Reaches altitude 10° 02:01:58 10° 217° (SW) 6,046 11.5 -51.3°
Maximum altitude 02:13:21 18° 181° (S) 5,559 11.5 -49.1°
Drops below altitude 10° 02:24:32 10° 145° (SE) 5,932 12.0 -46.8°
Sets 02:31:32 0° 126° (SE) 6,569 12.5 -45.4°
